CHINASAT 6A (ZX 6A)     
1 37150U 10042A   19260.08295693 -.00000359  00000-0  00000+0 0  9990
2 37150   0.0247 216.1234 0003243 264.0084  30.5442  1.00273801 33181
CZ-3B DEB               
1 38748U 10042C   19253.05185272  .00002018  00000-0  13660-2 0  9996
2 38748  23.2743 218.3238 7398687 255.3995  19.2756  2.11432176 59939
CZ-3B DEB               
1 39333U 10042E   19258.43622360 -.00000275  00000-0 -57566-3 0  9997
2 39333  24.5562   3.7420 7456535   0.0489   8.0009  1.90566865 43021
CZ-3B DEB               
1 39334U 10042F   19258.11656719 -.00000052  00000-0  00000+0 0  9997
2 39334  25.4577 124.8728 7369493 111.8269   7.8343  1.86378312 55829
CZ-3B DEB               
1 39335U 10042G   19256.68105694 -.00000647  00000-0  60085-2 0  9991
2 39335  28.3007  10.4496 7371957 266.3123  31.0296  1.97135340 59188
CZ-3B DEB               
1 39336U 10042H   19258.82652001 -.00000024  00000-0 -10101-1 0  9992
2 39336  24.2791 316.1943 7320429  83.5324 347.3441  2.01485449 41840
CZ-3B DEB               
1 39337U 10042J   19256.00402450  .00000033  00000-0  46155-2 0  9999
2 39337  25.5335  57.1406 7498656 248.4642  21.8973  1.83202896 50631
CZ-3B DEB               
1 40158U 10042K   19258.66345933 -.00000040  00000-0  00000-0 0  9994
2 40158  25.8173 111.9128 7351029 129.8811 321.4426  1.88747153 40152
CZ-3B DEB               
1 40159U 10042L   19257.34064975 -.00000361  00000-0 -68774-3 0  9995
2 40159  26.5610 197.5306 7256010 214.1004  64.8624  2.23674115 46602
CZ-3B DEB               
1 40160U 10042M   19260.10873306 -.00000028  00000-0  00000+0 0  9994
2 40160  26.3143 135.3855 7273123  78.8825   9.5035  1.89921377 40378
CZ-3B DEB               
1 40162U 10042P   19260.39720122 -.00000226  00000-0  00000+0 0  9994
2 40162  26.1138 135.1814 7235792  82.8347 347.1292  1.92042266 48075
CZ-3B DEB               
1 40163U 10042Q   19252.55952917  .00000167  00000-0  86577-2 0  9992
2 40163  28.2219  52.9598 7387061 196.2030  36.2575  1.92548872 53766
CZ-3B DEB               
1 40164U 10042R   19257.58196792 -.00000231  00000-0  00000+0 0  9999
2 40164  26.3830 123.9682 7304608  96.2047 128.6107  1.89880089 50355
CZ-3B DEB               
1 40165U 10042S   19256.35882947 -.00000135  00000-0  45022-2 0  9997
2 40165  28.4503  54.5835 7384236 187.5982 144.2912  1.92881751 56212
CZ-3B DEB               
1 40166U 10042T   19257.54360817 -.00000064  00000-0  00000+0 0  9992
2 40166  25.6372 156.1993 7077212  58.7933 291.4369  1.96660845 59170
CZ-3B DEB               
1 40167U 10042U   19260.36216179 -.00000253  00000-0  00000+0 0  9998
2 40167  26.1867 146.8143 7159858  63.7760 351.0972  1.93640622 48809
CZ-3B DEB               
1 40169U 10042W   19258.63481851 -.00000257  00000-0  00000+0 0  9992
2 40169  25.9083 123.6916 7233629 105.7442 113.3690  1.93991737 49973
CZ-3B DEB               
1 40814U 10042X   19255.06969069  .00000042  00000-0  58317-2 0  9993
2 40814  26.9516  78.8918 7375697 174.4696 204.6672  1.90400750 33717
CZ-3B DEB               
1 40815U 10042Y   19253.00218235  .00000151  00000-0  43804-2 0  9994
2 40815  26.7937  67.0153 7367767 203.5895  88.6435  1.90970624 39667
CZ-3B DEB               
1 42458U 10042Z   19252.81036419 -.00000258  00000-0  24490-2 0  9998
2 42458  30.2121 132.0915 7445184  11.0503 359.0721  1.81233854 31633
CZ-3B DEB               
1 42459U 10042AA  19257.39703165 -.00000235  00000-0  00000+0 0  9999
2 42459  26.5514 159.4539 7240250  37.3225 355.5450  1.87018981 32552
CZ-3B DEB               
1 42460U 10042AB  19258.79148583 -.00000137  00000-0  86842-3 0  9996
2 42460  30.6782  50.4036 7524395 134.8681 318.9631  1.87502765 53637
CZ-3B DEB               
1 42461U 10042AC  19252.34703076 -.00000014  00000-0  00000+0 0  9998
2 42461  21.9539 201.6108 7342824  43.0459 355.0335  1.78070028 35411
CZ-3B DEB               
1 42462U 10042AD  19256.02816594 -.00000853  00000-0 -71997-2 0  9996
2 42462  24.4142 323.4198 7301720  69.0455 350.5765  2.01877788 30637
CZ-3B DEB               
1 42464U 10042AF  19255.11760053  .00000003  00000-0  00000+0 0  9994
2 42464  23.5547 149.4031 7398297 101.6361 341.9819  1.82387889 37394